Regional Weather Roundup
Issued by NWS

Home | Current Version | Previous Version | Graphics & Text | Print | Product List | Glossary On
Versions: 1 2 3 4 5 6 7 8 9 10 11 12 13 14 15 16 17 18 19 20 21 22 23 24 25 26 27 28 29 30 31 32 33 34 35 36 37 38 39 40 41 42 43 44 45 46 47 48 49 50
000
ASUS45 KTFX 292219
RWRMT
MONTANA HOURLY WEATHER ROUNDUP
NATIONAL WEATHER SERVICE GREAT FALLS MT
419 PM MDT WED OCT 29 2014

NOTE: "FAIR" INDICATES FEW OR NO CLOUDS BELOW 12000 FEET WITH NO
SIGNIFICANT WEATHER AND/OR OBSTRUCTIONS TO VISIBILITY.

* THESE STATIONS ARE NOT UNDER NWS QUALITY CONTROL. THEY DO NOT
   REPORT WEATHER SUCH AS PRECIPITATION OR FOG.

MTZ001>007-043-292300-
WEST OF THE DIVIDE
CITY           SKY/WX    TMP DP  RH WIND       PRES   REMARKS
KALISPELL      CLOUDY    52  45  77 S6        30.16S
MISSOULA       CLOUDY    50  46  86 W5        30.22S
BUTTE          PTCLDY    52  27  38 W14G22    30.20S
MULLAN PASS    LGT RAIN  37  37 100 W8        30.20S VSB M1/4 WCI  31
* ANACONDA     PTCLDY    54  30  40 W13G18     N/A
* DEER LODGE   SUNNY     55  36  49 N/A        N/A
* ESSEX        N/A       44  42  93 N/A        N/A
* HAMILTON APT PTCLDY    55  36  49 SE2        N/A
* LIBBY APT    SUNNY     46  43  89 N/A        N/A
* LINCOLN      N/A       51  38  61 SW7G17     N/A
* LOOKOUT PASS N/A       43  42  96 SE2G8      N/A
* POLSON       N/A       51  45  80 S3G9       N/A
* RONAN APT    PTCLDY    50  45  83 N/A        N/A
* SEELEY LAKE  N/A       49  42  77 E2         N/A
* THOMP F APT  PTCLDY    51  24  35 SW7G12     N/A
* YAAK HILL    N/A       45  43  93 E1         N/A
$$

MTZ008-052>055-292300-
SOUTHWEST MONTANA
CITY           SKY/WX    TMP DP  RH WIND       PRES   REMARKS
BOZEMAN        CLOUDY    57  28  33 W15G20    30.15S
DILLON         SUNNY     55  25  31 W13       30.17S
W YELLOWSTONE  CLOUDY    46  27  48 S13G23    30.23S
* ENNIS APT    PTCLDY    55  23  29 W10G16     N/A
* THREE FORKS  PTCLDY    61  34  36 W10G16     N/A
* BOULDER HILL N/A       53  25  34 S9G14      N/A
* MONIDA PASS  N/A       48  24  39 S7         N/A
* RAYNOLDS PAS N/A       51  43  74 SW13G22    N/A
* WHITEHALL    N/A       61  29  30 W13G22     N/A
* WISE RIVER   N/A       47  27  46 W17G25     N/A
$$

MTZ009>010-012-014-046-048-049-054-292300-
EAST SLOPES AND CENTRAL MONTANA
CITY           SKY/WX    TMP DP  RH WIND       PRES   REMARKS
CUT BANK       PTCLDY    55  36  49 W23       30.04S
GREAT FALLS    SUNNY     59  30  33 SW22G28   30.05S
HELENA         LGT RAIN  55  36  49 NW12      30.14S
MALMSTROM AFB  PTCLDY    59  30  33 W20G29    30.08S
* CONRAD       PTCLDY    57  34  42 W22G28     N/A
* DEARBORN     N/A       56  34  44 S17G29     N/A
* EAST GLACIER N/A       44  37  76 W9         N/A
* MONARCH      N/A       50  23  35 W20G25     N/A
* SAINT MARY   N/A       46  37  71 S6G20      N/A
* SWEET GRASS  N/A       57  29  34 NW26G35    N/A
* WHITE SULPH  N/A       55  33  43 NW16G26    N/A
$$

MTZ011-013-016-021-035-040-045-047-050-051-292300-
NORTH CENTRAL MONTANA
CITY           SKY/WX    TMP DP  RH WIND       PRES   REMARKS
HAVRE          PTCLDY    63  34  34 NW13      29.99S
LEWISTOWN      CLOUDY    59  30  33 NW22G28   30.05S
* N BAR RANCH  SUNNY     57  27  32 NW21G30   30.04S
* FORT BENTON  PTCLDY    61  30  31 W16G25    30.03S
* MALTA APT    PTCLDY    61  34  36 W11G25     N/A
* CHESTER      N/A       59  28  31 NW13G26    N/A
* DENTON       N/A       58  30  35 W20G29     N/A
* GEYSER       N/A       57  29  34 W24G32     N/A
* JUDITH GAP   N/A       58  27  31 NW16G22    N/A
* LOMA         N/A       63  32  31 W22G30     N/A
$$

MTZ017>020-022>027-061-062-292300-
NORTHEAST MONTANA
CITY           SKY/WX    TMP DP  RH WIND       PRES   REMARKS
GLASGOW        SUNNY     61  34  36 W20       29.91S
GLENDIVE       PTCLDY    61  37  41 W28G35    29.94S
JORDAN         SUNNY     61  34  36 NW18G26   29.96S
SIDNEY         CLOUDY    55  39  55 W15G22    29.91S
WOLF POINT     PTCLDY    63  37  38 W21G28    29.90S
* BEAVER HILL  N/A       51  42  71 SW10       N/A
* CIRCLE       N/A       60  40  48 NW16G21    N/A
* LINDSAY DVD  N/A       56  36  47 W28G37     N/A
* NAVAJO       N/A       55  33  43 NW20G26    N/A
* PLENTYWOOD A N/A       54  36  51 W14        N/A
* POPLAR APT   N/A       57  39  51 N/A        N/A
* SCOBEY APT   PTCLDY    57  30  36 W21G26     N/A
$$

MTZ028>042-056>058-292300-
SOUTHCENTRAL AND SOUTHEAST MONTANA
CITY           SKY/WX    TMP DP  RH WIND       PRES   REMARKS
BAKER          PTCLDY    57  37  47 NW16G25   29.97S
BILLINGS       PTCLDY    64  25  23 NW28G39   30.04S
LIVINGSTON     PTSUNNY   59  27  29 W25G37    30.11S
MILES CITY     PTSUNNY   61  37  41 NW15      29.96S
* FORSYTH APT  PTCLDY    63  32  31 NW14G25    N/A
* LAUREL APT   SUNNY     63  23  22 W18G31     N/A
* ROUNDUP APT  SUNNY     61  27  27 W17        N/A
* ALZADA       N/A       60  33  36 W15        N/A
* HYSHAM       N/A       59  27  29 W10        N/A
* LAME DEER    N/A       58  26  29 W18G29     N/A
* REED POINT   N/A       60  30  32 W20G33     N/A
* ROSCOE HILL  N/A       57  19  23 W6G18      N/A
$$

REGIONAL REPORTS...DAKOTAS
CITY           SKY/WX    TMP DP  RH WIND       PRES   REMARKS
WILLISTON      PTSUNNY   48  37  66 SW7       29.88S
DICKINSON      CLOUDY    48  41  77 W13       29.91S
BEACH          N/A       50  41  71 N/A       29.94S
CROSBY         SUNNY     50  37  61 W9        29.85S
TIOGA          SUNNY     46  37  71 SW14      29.88S
BISMARCK       CLOUDY    52  37  57 SE7       29.93S
GRAND FORKS    CLOUDY    39  28  65 S9        30.03S WCI  33
FARGO          CLOUDY    43  28  56 S8        30.04S
BUFFALO SD     PTSUNNY   59  36  42 NW29G37   29.90S
RAPID CITY     CLOUDY    61  36  39 N14       29.99S
$$

REGIONAL REPORTS...WYOMING/IDAHO/WASHINGTON
CITY           SKY/WX    TMP DP  RH WIND       PRES   REMARKS
GILLETTE       PTSUNNY   61  27  27 NW14G26   30.04S
SHERIDAN       PTSUNNY   61  25  25 NW23G40   30.04S
CODY           SUNNY     57  25  29 W13G18    30.14S
YELLOWSTONE LA PTCLDY    43  25  49 CALM      30.28S
SALMON         PTCLDY    54  34  47 W5        30.19S
MULLAN PASS    LGT RAIN  37  37 100 W8        30.20S VSB M1/4 WCI  31
SAND POINT     CLOUDY    50  46  86 SW6       30.19S
SPOKANE        PTSUNNY   52  48  86 N8        30.17S
$$

REGIONAL REPORTS...ALBERTA
CITY           SKY/WX    TMP DP  RH WIND       PRES   REMARKS
CALGARY        PTCLDY    57  28  33 W15G23    29.96S
LETHBRIDGE     SUNNY     59  34  39 W29G37    29.99S
MEDICINE HAT   SUNNY     57  34  42 NW8       29.98S
EDMONTON       CLOUDY    37  30  76 N2        30.03S
WATERTON GATE  N/A       52  34  50 SW13G20    N/A
CARDSTON       N/A       54  36  51 W18G30     N/A
MILK RIVER     N/A       59  32  36 NW23G29    N/A
$$

REGIONAL REPORTS...SASKATCHEWAN
CITY           SKY/WX    TMP DP  RH WIND       PRES   REMARKS
SWIFT CURRENT  SUNNY     45  34  65 NW18      29.94S
MOOSE JAW      PTSUNNY   46  36  68 NW15      29.91S
REGINA         SUNNY     48  36  63 NW10      29.89S
VAL MARIE      N/A       55  32  42 NW18G25    N/A
ASSINIBOIA     N/A       50  36  59 NW18       N/A
CORONACH       N/A       54  34  47 NW17G24    N/A

$$




USA.gov is the U.S. government's official web portal to all federal, state and local government web resources and services.